Location: Bednik
(45.3500°N, 16.3833°E)
Time: 04:58:00
(UTC+00:00)

Tsikada Rocket - Pass Details

Date: 08 August 2020
Orbit: 957 x 1010 km, 82.9° (Epoch: 23 September)

Event Time Altitude Azimuth Distance (km) Brightness Sun altitude
Rises 21:45:18 0° 353° (N) 3,739 8.3 -26.5°
Reaches altitude 10° 21:47:53 10° 355° (N) 2,780 7.3 -26.7°
Maximum altitude 21:54:16 73° 80° (E) 1,038 4.0 -27.1°
Enters shadow 21:54:59 66° 126° (SE) 1,076 3.9 -27.1°
